Home > Time Zones > World Clock > Weather > China > Sian > Past weeks

Flag for China Weather past 2 weeks in Sian, Shaanxi, China

Now
73 °F

Clear.


Feels Like: 77 °F
Forecast: 66 / 84 °F
Wind: 6 mph from East

Location: Xian/Xianyang

Current Time: May 28, 2015 at 6:03:22 AM

Latest Report: May 28, 2015 at 5:00 AM


Visibility: 10 mi

Pressure: 29.65 "Hg

Humidity: 50%

Dew point: 54 °F

Location of SianLocation

Historic Weather in Sian — Graph

°F

Sian temperature yesterday

Maximum temperature yesterday: 90 °F (at 4:00 PM)
Minimum temperature yesterday: 64 °F (at 2:00 AM)
Average temperature yesterday: 76 °F

Past Weeks' High & Low Weather Summary

 TemperatureHumidityPressure
High91 °F (May 18, 4:00 PM)100% (May 22, 7:00 AM)30.09 "Hg (May 22, 7:00 AM)
Low50 °F (May 13, 5:00 AM)22% (May 18, 2:00 PM)29.50 "Hg (May 13, 4:00 PM)
Average71 °F61%29.80 "Hg
* Reported May 13 4:00 AM — May 28 4:00 AM, Sian, Weather by CustomWeather, © 2015

Note: Actual official high and low records may vary slightly from our data, if they occured in-between our weather recording intervals... More about our weather records

Advertising

Sian weather history for previous 24 hours

 ConditionsComfort  
Time TempWeatherWind HumidityBarometerVisibility
4:00 AM
Thu, May 28
72 °FClear.8 mph53%29.62 "Hg10 mi
3:00 AM73 °FClear.8 mph50%29.62 "Hg10 mi
2:00 AM73 °FPassing clouds.3 mph53%29.62 "HgN/A
1:00 AM73 °FClear.3 mph57%29.62 "Hg10 mi
12:00 AM72 °FClear.3 mph65%29.62 "Hg10 mi
11:00 PM
Wed, May 27
72 °FPassing clouds.3 mph65%29.65 "HgN/A
10:00 PM72 °FClear.3 mph61%29.62 "Hg10 mi
9:00 PM75 °FPassing clouds.3 mph57%29.62 "HgN/A
8:00 PM79 °FPassing clouds.6 mph48%29.59 "HgN/A
7:00 PM86 °FSunny.8 mph33%29.59 "Hg10 mi
6:00 PM88 °FPassing clouds.6 mph33%29.59 "HgN/A
5:00 PM90 °FPassing clouds.6 mph31%29.59 "HgN/A
4:00 PM90 °FPassing clouds.8 mph33%29.59 "HgN/A
3:00 PM88 °FPassing clouds.3 mph33%29.65 "HgN/A
2:00 PM88 °FSunny.3 mph38%29.68 "Hg10 mi
1:00 PM86 °FSunny.1 mph38%29.71 "Hg10 mi
12:00 PM82 °FSunny.3 mph45%29.71 "Hg10 mi
11:00 AM81 °FPassing clouds.3 mph51%29.74 "HgN/A
10:00 AM77 °FPassing clouds.6 mph54%29.77 "HgN/A
9:00 AM75 °FClear.6 mph57%29.77 "Hg4 mi
8:00 AM72 °FClear.3 mph65%29.77 "Hg4 mi
7:00 AM66 °FFog.1 mph78%29.74 "Hg3 mi
6:00 AM64 °FFog.3 mph78%29.74 "Hg3 mi
Weather by CustomWeather, © 2015

See weather overviewHow to use our weather pages